Location: Pl�tzky
(52.0521°N, 11.8020°E)
Time: 15:01:48
(UTC+00:00)

USA 229 - Pass Details

Date: 28 February 2020
Orbit: 986 x 1226 km, 63.4° (Epoch: 26 March)

Event Time Altitude Azimuth Distance (km) Brightness Sun altitude
Rises 20:16:47 0° 289° (WNW) 3,817 7.7 -31.5°
Reaches altitude 10° 20:19:41 10° 299° (WNW) 2,898 6.8 -31.9°
Maximum altitude 20:25:49 33° 2° (N) 1,779 5.0 -32.7°
Enters shadow 20:27:54 28° 32° (NNE) 1,966 5.0 -33.0°
